When you browse on this site, cookies collect data to enhance your experience and personalize the content and advertising you see.
Visit our Privacy Policy to learn more. By continuing to use the site, you agree to this use of cookies and data.
  • In Hungary
  • List of Countries
  • For 7 days
  • Water Temperature
  • Satellite Maps
  • Weather Map
  • News
  • Weather Widgets
  • user-avatar
    Login

    Hourly Weather Perekhrestya

    Today, 15 December, Saturday

    Time Temperature Precipitation Wind Pressure Humidity
    00:00 -1°C° 0 mm 3 mps 755 mmHg 86%
    01:00 -1°C° 0 mm 3 mps 755 mmHg 85%
    02:00 -2°C° 0 mm 2 mps 755 mmHg 68%
    03:00 -2°C° 0 mm 3 mps 755 mmHg 88%
    04:00 -2°C° 0 mm 3 mps 755 mmHg 90%
    05:00 -2°C° 0 mm 2 mps 755 mmHg 87%
    06:00 -2°C° 0 mm 3 mps 755 mmHg 86%
    07:00 -2°C° 0 mm 2 mps 755 mmHg 86%
    08:00 -1°C° 0 mm 3 mps 755 mmHg 90%
    09:00 -2°C° 0.4 mm 5 mps 755 mmHg 94%
    10:00 -2°C° 0.2 mm 5 mps 755 mmHg 92%
    11:00 -2°C° 0.3 mm 5 mps 755 mmHg 93%
    12:00 -2°C° 0.3 mm 5 mps 754 mmHg 93%
    13:00 -2°C° 0.1 mm 5 mps 754 mmHg 93%
    14:00 +1°C° 0 mm 2 mps 754 mmHg 73%
    15:00 0°C° 0 mm 3 mps 754 mmHg 86%
    16:00 +1°C° 0 mm 1 mps 754 mmHg 93%
    17:00 +1°C° 0.1 mm 1 mps 754 mmHg 95%
    18:00 -1°C° 0.9 mm 2 mps 754 mmHg 100%
    19:00 -1°C° 0.6 mm 2 mps 753 mmHg 100%
    20:00 -1°C° 0.5 mm 3 mps 753 mmHg 99%
    21:00 -2°C° 0.6 mm 4 mps 753 mmHg 99%
    22:00 -2°C° 0.6 mm 4 mps 752 mmHg 100%
    23:00 -2°C° 0.7 mm 4 mps 752 mmHg 100%

    Tomorrow, 16 December, Sunday

    Time Temperature Precipitation Wind Pressure Humidity
    00:00 -1°C° 0.7 mm 3 mps 752 mmHg 100%
    01:00 -1°C° 0.7 mm 3 mps 751 mmHg 100%
    02:00 -1°C° 0.7 mm 3 mps 751 mmHg 100%
    03:00 -1°C° 0.9 mm 2 mps 751 mmHg 100%
    04:00 -1°C° 1.1 mm 2 mps 750 mmHg 100%
    05:00 -1°C° 1 mm 2 mps 750 mmHg 100%
    06:00 -1°C° 0.5 mm 2 mps 750 mmHg 100%
    07:00 -1°C° 0.6 mm 2 mps 750 mmHg 100%
    08:00 +1°C° 1 mm 1 mps 750 mmHg 100%
    09:00 +1°C° 1.1 mm 1 mps 750 mmHg 100%
    10:00 +1°C° 1.3 mm 1 mps 751 mmHg 100%
    11:00 +1°C° 0.8 mm 1 mps 751 mmHg 100%
    12:00 +1°C° 0.9 mm 1 mps 752 mmHg 100%
    13:00 +1°C° 0.8 mm 1 mps 752 mmHg 100%
    14:00 +1°C° 0.4 mm 1 mps 752 mmHg 100%
    15:00 +1°C° 0.6 mm 1 mps 752 mmHg 100%
    16:00 +1°C° 0.4 mm 1 mps 752 mmHg 100%
    17:00 +1°C° 0.2 mm 1 mps 753 mmHg 100%
    18:00 -1°C° 0.1 mm 2 mps 753 mmHg 100%
    19:00 -1°C° 0.1 mm 3 mps 754 mmHg 100%
    20:00 -4°C° 0.1 mm 3 mps 754 mmHg 99%
    21:00 -4°C° 0 mm 2 mps 754 mmHg 99%
    22:00 -4°C° 0 mm 2 mps 755 mmHg 100%
    23:00 -5°C° 0.1 mm 2 mps 755 mmHg 100%

    Day after tomorrow, 17 December, Monday

    Time Temperature Precipitation Wind Pressure Humidity
    00:00 -6°C° 0.1 mm 2 mps 755 mmHg 100%
    01:00 -6°C° 0.1 mm 2 mps 756 mmHg 100%
    02:00 -6°C° 0 mm 1 mps 756 mmHg 100%
    03:00 -6°C° 0 mm 1 mps 756 mmHg 100%
    04:00 -7°C° 0 mm 1 mps 755 mmHg 100%
    05:00 -8°C° 0 mm 1 mps 755 mmHg 100%
    06:00 -8°C° 0 mm 1 mps 755 mmHg 100%
    07:00 -12°C° 0 mm 2 mps 755 mmHg 100%
    08:00 -13°C° 0 mm 2 mps 755 mmHg 100%
    09:00 -12°C° 0 mm 2 mps 755 mmHg 100%
    10:00 -9°C° 0 mm 1 mps 755 mmHg 100%
    11:00 -8°C° 0 mm 0 mps 756 mmHg 97%
    12:00 -7°C° 0 mm 0 mps 755 mmHg 97%
    13:00 -4°C° 0 mm 1 mps 755 mmHg 97%
    14:00 -3°C° 0 mm 1 mps 755 mmHg 97%
    15:00 -5°C° 0 mm 2 mps 755 mmHg 97%
    16:00 -5°C° 0 mm 2 mps 755 mmHg 98%
    17:00 -4°C° 0 mm 1 mps 755 mmHg 100%
    18:00 -6°C° 0 mm 1 mps 755 mmHg 100%
    19:00 -6°C° 0 mm 1 mps 755 mmHg 100%
    20:00 -6°C° 0 mm 1 mps 755 mmHg 100%
    21:00 -7°C° 0 mm 2 mps 755 mmHg 100%
    22:00 -6°C° 0 mm 1 mps 755 mmHg 100%
    23:00 -6°C° 0 mm 0 mps 756 mmHg 100%

    18 December, Tuesday

    Time Temperature Precipitation Wind Pressure Humidity
    00:00 -6°C° 0 mm 1 mps 756 mmHg 99%
    01:00 -5°C° 0 mm 0 mps 756 mmHg 99%
    02:00 -5°C° 0 mm 0 mps 756 mmHg 99%
    03:00 -5°C° 0 mm 0 mps 756 mmHg 99%
    04:00 -5°C° 0 mm 0 mps 756 mmHg 97%
    05:00 -5°C° 0 mm 0 mps 756 mmHg 96%
    06:00 -5°C° 0 mm 0 mps 757 mmHg 96%
    07:00 -4°C° 0 mm 1 mps 757 mmHg 96%
    08:00 -4°C° 0 mm 0 mps 758 mmHg 96%
    09:00 -4°C° 0 mm 0 mps 758 mmHg 95%
    10:00 -4°C° 0 mm 0 mps 758 mmHg 96%
    11:00 -3°C° 0 mm 0 mps 758 mmHg 95%
    12:00 -1°C° 0 mm 1 mps 758 mmHg 96%
    13:00 0°C° 0 mm 1 mps 758 mmHg 96%
    14:00 +1°C° 0 mm 1 mps 758 mmHg 96%
    15:00 +1°C° 0 mm 1 mps 758 mmHg 97%
    16:00 +1°C° 0 mm 1 mps 758 mmHg 98%
    17:00 0°C° 0 mm 0 mps 758 mmHg 96%
    18:00 -1°C° 0 mm 0 mps 758 mmHg 96%
    19:00 0°C° 0 mm 1 mps 758 mmHg 98%
    20:00 -1°C° 0 mm 1 mps 759 mmHg 100%
    21:00 -2°C° 0 mm 0 mps 759 mmHg 100%
    22:00 -3°C° 0 mm 0 mps 759 mmHg 100%
    23:00 -3°C° 0 mm 0 mps 759 mmHg 100%

    19 December, Wednesday

    Time Temperature Precipitation Wind Pressure Humidity
    00:00 -3°C° 0 mm 0 mps 759 mmHg 100%
    01:00 -4°C° 0 mm 0 mps 758 mmHg 100%
    02:00 -5°C° 0 mm 0 mps 759 mmHg 100%
    03:00 -5°C° 0 mm 0 mps 758 mmHg 100%
    04:00 -6°C° 0 mm 0 mps 758 mmHg 100%
    05:00 -6°C° 0 mm 0 mps 758 mmHg 100%
    06:00 -6°C° 0 mm 1 mps 758 mmHg 100%
    07:00 -6°C° 0 mm 1 mps 759 mmHg 100%
    08:00 -7°C° 0 mm 1 mps 759 mmHg 100%
    09:00 -7°C° 0 mm 1 mps 759 mmHg 100%
    10:00 -7°C° 0 mm 1 mps 760 mmHg 100%
    11:00 -6°C° 0 mm 1 mps 760 mmHg 99%
    12:00 -6°C° 0 mm 1 mps 760 mmHg 97%
    13:00 -4°C° 0 mm 1 mps 760 mmHg 97%
    14:00 -6°C° 0 mm 2 mps 760 mmHg 97%

    20 December, Thursday

    Time Temperature Precipitation Wind Pressure Humidity
    Show more